SCP
-0 -0 -0 -0 0 -0 -0 -0 -0 -0 -0 -0 -0 -0 -0 -0 -0 -0 -0 -0 -0 -0 -0 -0 -0 -0 -0 -0 -0 -0 -0 -0 -0 -0 -0 -0 0 0 0 0 0 0 0
-0 -1 -0 -0 -0 -0 -0 -0 -0 -0 -0 -0 -0 -0 -0 -0 -0 -0 -0 -0 -0 -0 -0 -0 -0 -0 -0 -0 -0 -0 -0 0 0 0 0 0 0 0 0 0 0 0 0
-1 -1 -0 -0 -0 -0 -0 -0 -0 -0 -0 -0 -0 -0 -0 -0 -0 -0 -0 -0 -0 -0 -0 -0 -0 -0 -0 -0 -0 -0 0 0 0 0 0 0 0 0 0 0 0 0 0
-1 -1 -0 -0 -0 -0 -0 -0 -0 -0 -0 -0 -0 -0 -0 -0 -0 -0 -0 -0 -0 -0 -0 -0 -0 -0 -0 -0 -0 0 0 0 0 0 0 0 0 0 0 0 0 0 0
-0 -0 -0 -0 -0 -0 -0 -0 -0 -0 -0 -0 -0 -0 -0 -0 -0 -0 -0 -0 -0 -0 -0 -0 -0 -0 -0 -0 0 0 0 0 0 0 0 0 0 0 0 0 0 0 0
-0 -0 -0 -0 -0 -0 -0 -0 -0 -0 -0 -0 -0 -0 -0 -0 -0 -0 -0 -0 -0 -0 -0 -0 -0 -0 -0 -0 0 0 0 0 0 0 0 0 0 0 0 0 0 0 0
-0 -0 -0 0 0 0 -0 -0 -0 -0 -0 -0 -0 -0 -0 -0 -0 -0 -0 -0 -0 -0 -0 -0 -0 -0 0 0 0 0 0 0 0 0 0 0 0 0 0 0 0 0 0
-0 -0 -0 0 0 0 0 -0 -0 -0 -0 -0 -0 -0 -0 -0 -0 -0 -0 -0 -0 -0 0 -0 0 0 0 0 0 0 0 0 0 0 0 0 0 0 0 0 0 0 0
-0 -0 0 0 0 0 0 -0 -0 -0 -0 -0 -0 -0 -0 -0 -0 -0 -0 -0 0 0 0 0 0 0 0 0 0 0 0 0 0 0 0 0 0 0 0 0 0 0 0
-0 0 0 0 0 0 0 0 -0 -0 -0 -0 -0 -0 -0 0 -0 -0 -0 -0 0 0 0 0 0 0 0 0 0 0 0 0 0 0 0 0 0 0 0 0 0 0 0
-0 0 -0 -0 0 0 0 0 0 -0 -0 -0 0 0 0 0 0 -0 -0 -0 0 0 0 0 0 0 0 0 0 0 0 0 0 0 0 0 0 0 0 0 0 0 0
-0 -0 0 0 0 0 0 0 0 0 0 0 0 0 0 0 0 0 0 0 0 0 0 0 0 0 0 0 0 0 0 0 0 0 0 0 0 0 0 0 0 0 0
-0 -0 0 0 0 0 0 0 0 0 0 0 0 0 0 0 0 0 0 0 0 0 0 0 0 0 0 0 0 0 0 0 0 0 0 0 0 0 0 0 0 0 0
-0 -0 -0 0 0 0 0 0 0 0 0 0 0 0 0 0 0 0 0 0 0 0 0 0 0 0 0 0 0 0 0 0 0 0 0 0 0 0 0 0 0 0 0
-0 -0 -0 0 0 0 0 0 0 0 0 0 0 0 0 0 0 0 0 0 0 0 0 0 0 0 0 0 0 0 0 0 0 0 0 0 0 0 0 1 0 0 0
-0 -0 0 0 0 0 0 0 0 0 0 0 0 0 0 0 0 0 0 0 0 0 0 0 0 0 0 0 0 0 0 0 0 0 0 0 0 0 0 0 0 0 0
-0 -0 -0 0 0 0 0 0 0 0 0 0 0 0 0 0 0 0 0 0 0 0 0 0 0 0 0 0 0 0 0 0 0 0 0 0 0 0 0 0 0 0 0
0 0 0 0 0 0 0 0 0 0 0 0 0 0 0 0 0 0 0 0 0 0 0 0 1 0 0 0 0 0 0 0 0 0 0 0 0 0 0 0 0 0 0
0 0 0 0 0 0 0 0 0 0 0 0 0 0 0 0 0 0 0 0 0 1 1 1 1 1 1 0 0 0 0 0 0 0 0 0 0 0 0 0 0 0 0
0 0 0 1 0 0 0 0 0 0 0 0 0 0 0 0 0 0 0 0 0 1 1 1 1 1 1 1 1 1 1 0 0 0 0 0 0 0 0 0 0 0 0
0 0 0 1 1 1 1 1 1 1 0 0 0 0 0 0 0 0 0 0 1 1 1 1 1 1 1 1 1 1 0 0 0 0 0 0 0 0 0 0 0 0 0
0 0 0 0 1 1 1 1 1 1 1 1 0 0 0 0 0 0 1 1 1 1 1 1 1 2 1 2 2 1 0 0 0 0 0 0 0 0 0 0 0 0 0
0 0 0 0 1 2 1 1 1 1 1 1 1 1 1 1 1 1 1 1 1 1 1 1 1 2 3 2 1 0 0 0 0 0 0 0 0 0 0 0 0 0 0
0 0 0 0 0 1 1 1 1 1 2 2 2 2 2 1 1 1 1 1 2 2 2 2 2 2 2 2 0 0 0 0 0 0 0 0 0 0 0 0 0 0 0
-0 0 0 0 0 1 1 1 2 2 2 2 3 3 2 2 2 1 1 1 2 3 2 2 2 2 1 1 0 0 0 0 0 0 0 0 0 0 0 0 0 0 0
0 0 0 0 1 1 1 1 2 2 2 3 3 3 4 3 2 1 2 2 2 2 2 2 2 1 1 0 0 0 0 0 0 0 0 0 0 0 0 0 0 0 0
Wind_Speed_500mb
66 58 50 43 39 33 28 27 29 29 29 29 26 26 25 24 23 22 22 21 20 19 19 20 22 23 22 24 23 22 24 25 26 26 27 31 34 33 29 25 24 24 21
74 65 56 48 42 36 31 27 26 28 28 28 26 25 25 24 23 22 21 19 18 17 18 19 19 18 18 20 19 19 20 19 21 23 24 26 30 31 31 26 22 20 19
72 69 61 52 46 40 34 29 27 27 28 27 26 24 23 22 20 20 20 18 17 15 16 16 15 14 14 15 15 14 15 15 17 17 20 23 26 29 28 28 26 25 21
70 69 62 55 48 41 35 29 26 27 27 27 27 25 24 22 21 18 17 16 15 14 13 13 12 10 10 10 10 10 10 13 14 15 16 17 21 26 29 27 27 27 26
67 67 61 54 48 42 35 29 26 25 25 25 26 25 23 22 20 19 17 15 13 12 10 9 8 7 6 5 5 5 6 8 10 13 12 14 17 21 22 23 27 27 28
63 62 58 55 50 44 37 33 28 24 23 24 25 24 22 21 20 19 18 16 13 12 10 9 7 6 4 3 2 2 1 3 6 8 11 13 16 17 20 19 23 25 27
60 61 59 54 48 44 41 36 30 25 24 24 24 24 23 21 20 19 17 15 14 12 11 11 9 7 5 5 5 5 5 5 5 6 8 9 12 15 16 16 18 20 22
55 60 58 53 51 47 41 36 32 29 26 25 24 23 22 20 19 18 16 15 14 13 12 10 9 9 7 7 9 9 7 9 10 11 9 10 9 14 14 14 14 15 17
56 58 58 56 52 47 42 39 36 32 29 28 26 25 23 21 20 18 18 16 15 14 12 10 12 10 9 11 13 11 9 10 11 13 12 13 12 12 12 12 12 13 15
54 58 60 58 54 50 48 44 40 37 34 33 31 27 26 24 21 20 18 17 16 15 15 15 15 14 15 15 16 15 12 10 10 12 13 12 12 13 15 17 15 17 19
56 60 62 61 58 55 53 49 45 41 40 38 36 32 32 28 25 23 21 21 19 18 18 18 18 19 19 20 20 17 15 11 10 11 11 9 9 12 15 18 16 18 21
52 60 61 60 60 59 56 53 52 49 49 47 42 39 37 32 29 26 25 24 23 23 23 22 22 23 23 24 22 19 18 15 13 10 10 9 11 15 16 17 18 18 19
45 52 57 60 60 60 60 59 58 57 55 53 49 46 41 38 36 33 32 30 29 28 27 26 25 27 27 26 23 21 20 20 17 14 14 14 16 20 19 18 23 24 22
51 49 53 57 59 60 59 60 60 61 60 58 54 50 48 45 43 40 37 34 34 33 30 30 30 31 29 28 26 25 25 24 20 18 17 16 18 20 22 21 26 27 29
55 54 55 56 58 58 60 60 61 62 62 59 57 54 52 50 48 45 42 40 38 36 35 34 33 34 32 30 31 31 28 25 25 24 21 21 23 23 26 28 27 30 34
60 59 55 58 56 59 61 61 61 64 64 61 59 58 55 54 53 51 48 47 44 41 40 37 36 34 33 36 36 34 34 32 31 28 27 28 27 28 29 29 30 33 37
63 65 64 59 59 61 61 63 65 66 67 64 62 60 59 59 58 56 55 54 50 47 44 44 43 41 40 42 42 40 37 37 34 34 34 32 30 31 30 30 32 33 30
72 71 67 65 65 63 64 67 71 70 67 65 65 64 63 63 63 62 63 62 56 53 52 52 51 51 49 49 49 48 45 43 41 40 37 33 32 29 24 26 24 25 27
79 76 71 68 68 67 68 71 72 68 67 69 69 68 67 66 67 68 68 67 61 60 59 58 58 59 60 58 57 54 55 54 48 46 43 39 38 27 21 21 21 21 26
82 81 77 76 73 71 72 74 74 71 70 71 72 71 69 69 69 71 72 72 68 67 67 65 64 64 66 65 64 61 62 59 59 56 49 42 37 27 20 18 26 27 29
77 84 87 89 85 83 80 80 82 79 77 75 73 73 71 71 71 72 72 75 74 73 71 69 66 68 70 71 69 71 71 69 68 64 62 38 17 27 17 28 35 31 33
65 69 75 77 87 91 88 84 85 86 84 80 77 75 74 72 70 71 71 73 73 72 71 72 70 73 76 75 73 71 60 65 72 70 67 62 46 41 38 32 39 37 38
65 67 69 68 73 78 88 89 91 92 90 89 89 86 83 80 73 69 68 70 72 74 74 73 74 77 81 84 79 70 27 30 37 49 53 57 54 52 47 42 45 47 44
51 46 60 69 70 71 72 87 96 97 95 95 93 91 88 85 77 70 63 62 70 76 74 75 77 78 79 81 83 84 87 68 32 27 52 54 55 48 53 57 44 50 46
16 24 42 56 62 68 70 73 84 92 97 95 96 94 91 88 83 73 66 64 67 72 75 74 76 79 76 77 80 81 73 82 70 59 50 62 55 57 71 60 42 48 48
47 34 15 27 41 54 61 64 69 77 85 89 90 90 90 89 81 74 73 67 63 68 72 76 75 76 79 82 74 81 81 73 73 62 56 54 64 70 62 48 48 49 41
Wind_Direction_500mb
179 177 169 169 159 155 159 158 156 150 152 152 151 145 144 142 139 132 130 127 126 121 112 106 103 100 96 94 92 91 90 87 84 84 79 73 68 66 64 64 64 63 61
176 177 173 174 166 167 166 163 156 155 154 153 151 151 152 151 145 140 136 132 127 121 115 111 105 101 100 99 95 90 84 82 81 78 77 72 67 62 58 58 58 60 61
177 177 177 177 172 175 174 169 161 160 158 158 155 157 159 155 151 150 143 141 136 133 123 115 111 116 110 106 99 92 82 83 81 74 70 69 60 56 53 53 53 52 49
178 179 179 180 177 181 182 174 167 164 164 162 160 165 168 163 160 157 152 150 147 141 135 127 130 128 118 106 108 103 93 80 77 65 61 57 55 52 47 46 46 44 43
180 181 182 184 182 186 188 185 180 174 169 168 168 172 173 170 168 165 165 163 157 153 148 141 148 141 133 129 139 126 91 83 70 52 50 39 45 39 40 44 39 33 34
182 185 187 189 189 189 192 195 189 183 176 174 176 181 180 181 176 175 174 172 170 168 166 165 177 174 175 185 217 212 353 51 55 40 30 27 30 24 27 28 28 28 28
186 189 191 193 195 194 197 197 194 190 186 184 185 189 189 191 184 184 184 180 178 177 180 183 188 199 207 227 244 265 290 313 325 336 358 357 8 12 11 12 14 22 26
192 192 195 197 199 200 202 202 203 200 196 195 195 197 198 198 195 192 193 190 184 186 196 191 199 209 224 247 255 253 271 285 299 303 313 323 343 356 355 1 356 11 9
193 196 198 200 203 205 207 208 210 208 208 206 205 205 208 209 205 200 202 197 196 197 200 210 225 226 228 243 255 259 257 271 281 291 297 300 312 324 322 337 340 346 349
196 200 203 204 205 207 210 210 213 214 215 214 213 212 216 218 215 211 212 212 212 212 213 221 233 236 234 239 248 255 258 259 275 284 283 288 305 305 313 329 326 333 330
200 206 207 206 207 209 212 213 214 218 221 221 218 217 222 224 223 221 219 220 224 227 230 235 238 240 240 242 245 247 249 253 265 261 258 270 288 300 304 313 319 319 325
202 205 209 210 211 210 213 215 217 220 223 225 223 224 228 229 230 229 229 229 233 237 241 246 247 246 243 243 243 239 238 244 237 230 246 261 279 283 299 298 299 309 311
210 208 208 210 213 215 216 217 220 223 226 227 227 229 232 233 234 234 235 237 241 242 246 253 253 249 243 242 241 238 241 236 236 242 253 267 279 279 298 296 300 297 303
218 216 212 211 213 216 220 223 226 228 228 229 231 232 235 237 239 240 242 244 245 247 250 253 255 254 249 244 240 242 242 242 238 242 255 275 284 283 278 290 287 296 299
224 221 219 217 216 218 221 226 230 233 234 235 236 236 238 240 243 245 246 248 249 252 255 257 260 256 249 243 243 245 242 244 250 257 266 272 274 279 273 276 285 289 293
231 228 224 225 224 225 225 229 233 236 237 238 239 240 241 244 246 247 249 251 253 254 257 255 257 254 248 245 247 246 245 251 257 265 267 270 274 276 273 271 276 278 281
233 232 229 229 230 229 230 232 235 240 241 242 243 243 244 246 248 251 252 252 253 254 255 254 254 254 250 249 250 251 253 255 259 267 270 268 275 279 277 278 275 277 278
236 236 234 234 234 236 234 236 237 240 244 245 246 247 246 248 250 251 253 254 254 254 254 253 252 253 252 253 255 257 258 258 260 266 268 271 275 274 279 276 281 287 290
246 242 238 238 239 239 241 240 242 244 247 250 251 250 250 250 251 252 254 256 256 255 255 255 253 252 254 256 259 261 263 263 263 268 272 271 273 277 269 271 279 280 284
252 250 247 242 240 240 242 245 246 247 248 249 252 253 254 253 253 253 255 256 256 256 255 255 253 253 255 257 261 263 264 265 263 262 263 265 273 265 260 272 266 272 273
259 259 252 247 241 239 237 240 245 246 248 250 252 254 254 254 253 254 254 256 255 255 256 257 255 254 256 258 261 263 265 261 259 254 253 245 281 268 247 288 273 276 278
255 258 260 255 247 241 240 241 245 250 252 253 255 256 257 257 254 254 253 253 255 256 255 255 254 255 256 256 256 261 260 260 251 249 246 239 225 242 273 277 277 282 283
252 252 255 255 254 246 241 244 245 248 251 254 254 254 254 255 256 254 255 257 256 258 259 259 259 257 257 260 257 251 233 225 232 240 244 229 223 237 245 261 271 279 284
262 246 252 256 256 257 247 246 248 251 253 257 258 259 260 261 261 261 256 262 260 261 264 264 264 264 264 263 264 261 255 248 226 237 239 219 212 234 253 252 249 274 282
345 265 245 253 259 260 258 251 251 252 256 257 260 262 261 262 263 263 263 261 260 260 265 266 266 267 264 263 264 261 250 254 255 252 223 214 214 236 264 251 254 271 285
44 34 339 280 271 268 268 266 263 263 261 262 264 265 264 262 263 264 267 268 263 263 266 268 268 268 266 264 265 266 265 252 243 231 217 218 227 243 250 240 254 270 278
Wind_Speed_850mb
66 58 50 43 39 33 28 27 29 29 29 29 26 26 25 24 23 22 22 21 20 19 19 20 22 23 22 24 23 22 24 25 26 26 27 31 34 33 29 25 24 24 21
74 65 56 48 42 36 31 27 26 28 28 28 26 25 25 24 23 22 21 19 18 17 18 19 19 18 18 20 19 19 20 19 21 23 24 26 30 31 31 26 22 20 19
72 69 61 52 46 40 34 29 27 27 28 27 26 24 23 22 20 20 20 18 17 15 16 16 15 14 14 15 15 14 15 15 17 17 20 23 26 29 28 28 26 25 21
70 69 62 55 48 41 35 29 26 27 27 27 27 25 24 22 21 18 17 16 15 14 13 13 12 10 10 10 10 10 10 13 14 15 16 17 21 26 29 27 27 27 26
67 67 61 54 48 42 35 29 26 25 25 25 26 25 23 22 20 19 17 15 13 12 10 9 8 7 6 5 5 5 6 8 10 13 12 14 17 21 22 23 27 27 28
63 62 58 55 50 44 37 33 28 24 23 24 25 24 22 21 20 19 18 16 13 12 10 9 7 6 4 3 2 2 1 3 6 8 11 13 16 17 20 19 23 25 27
60 61 59 54 48 44 41 36 30 25 24 24 24 24 23 21 20 19 17 15 14 12 11 11 9 7 5 5 5 5 5 5 5 6 8 9 12 15 16 16 18 20 22
55 60 58 53 51 47 41 36 32 29 26 25 24 23 22 20 19 18 16 15 14 13 12 10 9 9 7 7 9 9 7 9 10 11 9 10 9 14 14 14 14 15 17
56 58 58 56 52 47 42 39 36 32 29 28 26 25 23 21 20 18 18 16 15 14 12 10 12 10 9 11 13 11 9 10 11 13 12 13 12 12 12 12 12 13 15
54 58 60 58 54 50 48 44 40 37 34 33 31 27 26 24 21 20 18 17 16 15 15 15 15 14 15 15 16 15 12 10 10 12 13 12 12 13 15 17 15 17 19
56 60 62 61 58 55 53 49 45 41 40 38 36 32 32 28 25 23 21 21 19 18 18 18 18 19 19 20 20 17 15 11 10 11 11 9 9 12 15 18 16 18 21
52 60 61 60 60 59 56 53 52 49 49 47 42 39 37 32 29 26 25 24 23 23 23 22 22 23 23 24 22 19 18 15 13 10 10 9 11 15 16 17 18 18 19
45 52 57 60 60 60 60 59 58 57 55 53 49 46 41 38 36 33 32 30 29 28 27 26 25 27 27 26 23 21 20 20 17 14 14 14 16 20 19 18 23 24 22
51 49 53 57 59 60 59 60 60 61 60 58 54 50 48 45 43 40 37 34 34 33 30 30 30 31 29 28 26 25 25 24 20 18 17 16 18 20 22 21 26 27 29
55 54 55 56 58 58 60 60 61 62 62 59 57 54 52 50 48 45 42 40 38 36 35 34 33 34 32 30 31 31 28 25 25 24 21 21 23 23 26 28 27 30 34
60 59 55 58 56 59 61 61 61 64 64 61 59 58 55 54 53 51 48 47 44 41 40 37 36 34 33 36 36 34 34 32 31 28 27 28 27 28 29 29 30 33 37
63 65 64 59 59 61 61 63 65 66 67 64 62 60 59 59 58 56 55 54 50 47 44 44 43 41 40 42 42 40 37 37 34 34 34 32 30 31 30 30 32 33 30
72 71 67 65 65 63 64 67 71 70 67 65 65 64 63 63 63 62 63 62 56 53 52 52 51 51 49 49 49 48 45 43 41 40 37 33 32 29 24 26 24 25 27
79 76 71 68 68 67 68 71 72 68 67 69 69 68 67 66 67 68 68 67 61 60 59 58 58 59 60 58 57 54 55 54 48 46 43 39 38 27 21 21 21 21 26
82 81 77 76 73 71 72 74 74 71 70 71 72 71 69 69 69 71 72 72 68 67 67 65 64 64 66 65 64 61 62 59 59 56 49 42 37 27 20 18 26 27 29
77 84 87 89 85 83 80 80 82 79 77 75 73 73 71 71 71 72 72 75 74 73 71 69 66 68 70 71 69 71 71 69 68 64 62 38 17 27 17 28 35 31 33
65 69 75 77 87 91 88 84 85 86 84 80 77 75 74 72 70 71 71 73 73 72 71 72 70 73 76 75 73 71 60 65 72 70 67 62 46 41 38 32 39 37 38
65 67 69 68 73 78 88 89 91 92 90 89 89 86 83 80 73 69 68 70 72 74 74 73 74 77 81 84 79 70 27 30 37 49 53 57 54 52 47 42 45 47 44
51 46 60 69 70 71 72 87 96 97 95 95 93 91 88 85 77 70 63 62 70 76 74 75 77 78 79 81 83 84 87 68 32 27 52 54 55 48 53 57 44 50 46
16 24 42 56 62 68 70 73 84 92 97 95 96 94 91 88 83 73 66 64 67 72 75 74 76 79 76 77 80 81 73 82 70 59 50 62 55 57 71 60 42 48 48
47 34 15 27 41 54 61 64 69 77 85 89 90 90 90 89 81 74 73 67 63 68 72 76 75 76 79 82 74 81 81 73 73 62 56 54 64 70 62 48 48 49 41
Wind_Direction_850mb
179 177 169 169 159 155 159 158 156 150 152 152 151 145 144 142 139 132 130 127 126 121 112 106 103 100 96 94 92 91 90 87 84 84 79 73 68 66 64 64 64 63 61
176 177 173 174 166 167 166 163 156 155 154 153 151 151 152 151 145 140 136 132 127 121 115 111 105 101 100 99 95 90 84 82 81 78 77 72 67 62 58 58 58 60 61
177 177 177 177 172 175 174 169 161 160 158 158 155 157 159 155 151 150 143 141 136 133 123 115 111 116 110 106 99 92 82 83 81 74 70 69 60 56 53 53 53 52 49
178 179 179 180 177 181 182 174 167 164 164 162 160 165 168 163 160 157 152 150 147 141 135 127 130 128 118 106 108 103 93 80 77 65 61 57 55 52 47 46 46 44 43
180 181 182 184 182 186 188 185 180 174 169 168 168 172 173 170 168 165 165 163 157 153 148 141 148 141 133 129 139 126 91 83 70 52 50 39 45 39 40 44 39 33 34
182 185 187 189 189 189 192 195 189 183 176 174 176 181 180 181 176 175 174 172 170 168 166 165 177 174 175 185 217 212 353 51 55 40 30 27 30 24 27 28 28 28 28
186 189 191 193 195 194 197 197 194 190 186 184 185 189 189 191 184 184 184 180 178 177 180 183 188 199 207 227 244 265 290 313 325 336 358 357 8 12 11 12 14 22 26
192 192 195 197 199 200 202 202 203 200 196 195 195 197 198 198 195 192 193 190 184 186 196 191 199 209 224 247 255 253 271 285 299 303 313 323 343 356 355 1 356 11 9
193 196 198 200 203 205 207 208 210 208 208 206 205 205 208 209 205 200 202 197 196 197 200 210 225 226 228 243 255 259 257 271 281 291 297 300 312 324 322 337 340 346 349
196 200 203 204 205 207 210 210 213 214 215 214 213 212 216 218 215 211 212 212 212 212 213 221 233 236 234 239 248 255 258 259 275 284 283 288 305 305 313 329 326 333 330
200 206 207 206 207 209 212 213 214 218 221 221 218 217 222 224 223 221 219 220 224 227 230 235 238 240 240 242 245 247 249 253 265 261 258 270 288 300 304 313 319 319 325
202 205 209 210 211 210 213 215 217 220 223 225 223 224 228 229 230 229 229 229 233 237 241 246 247 246 243 243 243 239 238 244 237 230 246 261 279 283 299 298 299 309 311
210 208 208 210 213 215 216 217 220 223 226 227 227 229 232 233 234 234 235 237 241 242 246 253 253 249 243 242 241 238 241 236 236 242 253 267 279 279 298 296 300 297 303
218 216 212 211 213 216 220 223 226 228 228 229 231 232 235 237 239 240 242 244 245 247 250 253 255 254 249 244 240 242 242 242 238 242 255 275 284 283 278 290 287 296 299
224 221 219 217 216 218 221 226 230 233 234 235 236 236 238 240 243 245 246 248 249 252 255 257 260 256 249 243 243 245 242 244 250 257 266 272 274 279 273 276 285 289 293
231 228 224 225 224 225 225 229 233 236 237 238 239 240 241 244 246 247 249 251 253 254 257 255 257 254 248 245 247 246 245 251 257 265 267 270 274 276 273 271 276 278 281
233 232 229 229 230 229 230 232 235 240 241 242 243 243 244 246 248 251 252 252 253 254 255 254 254 254 250 249 250 251 253 255 259 267 270 268 275 279 277 278 275 277 278
236 236 234 234 234 236 234 236 237 240 244 245 246 247 246 248 250 251 253 254 254 254 254 253 252 253 252 253 255 257 258 258 260 266 268 271 275 274 279 276 281 287 290
246 242 238 238 239 239 241 240 242 244 247 250 251 250 250 250 251 252 254 256 256 255 255 255 253 252 254 256 259 261 263 263 263 268 272 271 273 277 269 271 279 280 284
252 250 247 242 240 240 242 245 246 247 248 249 252 253 254 253 253 253 255 256 256 256 255 255 253 253 255 257 261 263 264 265 263 262 263 265 273 265 260 272 266 272 273
259 259 252 247 241 239 237 240 245 246 248 250 252 254 254 254 253 254 254 256 255 255 256 257 255 254 256 258 261 263 265 261 259 254 253 245 281 268 247 288 273 276 278
255 258 260 255 247 241 240 241 245 250 252 253 255 256 257 257 254 254 253 253 255 256 255 255 254 255 256 256 256 261 260 260 251 249 246 239 225 242 273 277 277 282 283
252 252 255 255 254 246 241 244 245 248 251 254 254 254 254 255 256 254 255 257 256 258 259 259 259 257 257 260 257 251 233 225 232 240 244 229 223 237 245 261 271 279 284
262 246 252 256 256 257 247 246 248 251 253 257 258 259 260 261 261 261 256 262 260 261 264 264 264 264 264 263 264 261 255 248 226 237 239 219 212 234 253 252 249 274 282
345 265 245 253 259 260 258 251 251 252 256 257 260 262 261 262 263 263 263 261 260 260 265 266 266 267 264 263 264 261 250 254 255 252 223 214 214 236 264 251 254 271 285
44 34 339 280 271 268 268 266 263 263 261 262 264 265 264 262 263 264 267 268 263 263 266 268 268 268 266 264 265 266 265 252 243 231 217 218 227 243 250 240 254 270 278